Location: Cz?stochówka
(50.8142°N, 19.0915°E)
Time: 11:12:16
(UTC+00:00)

Meteor 1-22 Rocket - Pass Details

Date: 13 January 2026
Orbit: 787 x 938 km, 81.2° (Epoch: 10 February)

Event Time Altitude Azimuth Distance (km) Brightness Sun altitude
Rises 05:50:41 0° 193° (SSW) 3,585 7.6 -7.8°
Reaches altitude 10° 05:53:11 10° 194° (SSW) 2,643 6.9 -7.4°
Maximum altitude 05:59:16 82° 282° (WNW) 944 4.4 -6.6°
Drops below altitude 10° 06:05:16 10° 11° (N) 2,608 6.6 -5.7°
Sets 06:07:43 0° 13° (NNE) 3,535 7.3 -5.4°
